Change the Weather History Date:

Tuesday, October 2, 2012

  Actual Average Record
Temperature  
Mean Temperature 34 °F -  
Max Temperature 37 °F 25 °F 57 °F (2003)
Min Temperature 30 °F 14 °F -4 °F (2000)
Degree Days  
Heating Degree Days 32    
Moisture  
Dew Point 21 °F    
Average Humidity 61    
Maximum Humidity 65    
Minimum Humidity 55    
Precipitation  
Precipitation 0.00 in - - ()
Sea Level Pressure  
Sea Level Pressure 29.99 in    
Wind  
Wind Speed 16 mph (SSW)    
Max Wind Speed 22 mph    
Max Gust Speed 30 mph    
Visibility 10 miles    
Events      
Averages and records for this station are not official NWS values.
T = Trace of Precipitation, MM = Missing Value Source: NWS Daily Summary

Daily Weather History Graph

Daily Weather History Graph

Search for Another Location

Airport or City:

Trip Planner

Search our weather history database for the weather conditions in past years. The results will help you decide how hot, cold, wet, or windy it might be!

Date:

Astronomy

Oct. 02, 2012 Rise Set
Actual Time 8:26 AM AKDT 7:24 PM AKDT
Civil Twilight 7:30 AM AKDT 8:19 PM AKDT
Nautical Twilight 6:24 AM AKDT 9:25 PM AKDT
Astronomical Twilight 5:09 AM AKDT 10:38 PM AKDT
Moon 6:45 PM AKDT (10/2) 12:56 PM AKDT (10/2)
Length of Visible Light 12h 48m
Length of Day
10h 57m
Waning Gibbous, 93% of the Moon is Illuminated
Oct 2
Waning Gibbous
Oct 7
Last Quarter
Oct 15
New
Oct 21
First Quarter
Oct 29
Full

Hourly Weather History & Observations

Time (AKDT) Temp. Windchill Dew Point Humidity Pressure Visibility Wind Dir Wind Speed Gust Speed Precip Events Conditions
12:16 AM 30.2 °F 18.5 °F 15.8 °F 55% 30.05 in 10.0 mi SSW 17.3 mph 24.2 mph N/A   Mostly Cloudy
12:36 AM 30.2 °F 19.8 °F 15.8 °F 55% 30.06 in 10.0 mi SSW 13.8 mph - N/A   Partly Cloudy
12:56 AM 30.2 °F 17.4 °F 15.8 °F 55% 30.05 in 10.0 mi South 20.7 mph 25.3 mph N/A   Clear
1:16 AM 30.2 °F 18.5 °F 15.8 °F 55% 30.06 in 10.0 mi South 17.3 mph 25.3 mph N/A   Mostly Cloudy
1:36 AM 30.2 °F 17.8 °F 15.8 °F 55% 30.06 in 10.0 mi South 19.6 mph - N/A   Overcast
1:56 AM 30.2 °F 17.8 °F 17.6 °F 60% 30.07 in 10.0 mi SSW 19.6 mph 29.9 mph N/A   Overcast
2:16 AM 30.2 °F 18.1 °F 17.6 °F 60% 30.06 in 10.0 mi South 18.4 mph 26.5 mph N/A   Overcast
2:36 AM 30.2 °F 17.8 °F 17.6 °F 60% 30.07 in 10.0 mi South 19.6 mph 27.6 mph N/A   Overcast
2:56 AM 30.2 °F 20.8 °F 17.6 °F 60% 30.06 in 10.0 mi South 11.5 mph 20.7 mph N/A   Overcast
3:16 AM 30.2 °F 17.8 °F 17.6 °F 60% 30.05 in 10.0 mi South 19.6 mph 25.3 mph N/A   Overcast
3:36 AM 30.2 °F 18.5 °F 17.6 °F 60% 30.05 in 10.0 mi South 17.3 mph 25.3 mph N/A   Overcast
3:56 AM 30.2 °F 18.5 °F 17.6 °F 60% 30.05 in 10.0 mi South 17.3 mph - N/A   Overcast
4:16 AM 32.0 °F 21.2 °F 17.6 °F 55% 30.05 in 10.0 mi South 16.1 mph 24.2 mph N/A   Overcast
4:36 AM 32.0 °F 20.5 °F 17.6 °F 55% 30.04 in 10.0 mi South 18.4 mph 29.9 mph N/A   Overcast
4:56 AM 30.2 °F 18.5 °F 17.6 °F 60% 30.04 in 10.0 mi SSW 17.3 mph 27.6 mph N/A   Overcast
5:16 AM 30.2 °F 20.8 °F 17.6 °F 60% 30.04 in 10.0 mi SSW 11.5 mph 24.2 mph N/A   Overcast
5:36 AM 32.0 °F 20.8 °F 17.6 °F 55% 30.03 in 10.0 mi South 17.3 mph 24.2 mph N/A   Overcast
5:56 AM 32.0 °F 20.5 °F 19.4 °F 60% 30.03 in 10.0 mi South 18.4 mph 28.8 mph N/A   Overcast
6:16 AM 32.0 °F 20.8 °F 19.4 °F 60% 30.03 in 10.0 mi South 17.3 mph 23.0 mph N/A   Overcast
6:36 AM 32.0 °F 19.8 °F 19.4 °F 60% 30.03 in 10.0 mi South 20.7 mph 26.5 mph N/A   Overcast
6:56 AM 32.0 °F 21.6 °F 19.4 °F 60% 30.03 in 10.0 mi SSW 15.0 mph - N/A   Overcast
7:16 AM 32.0 °F 20.8 °F 19.4 °F 60% 30.02 in 10.0 mi South 17.3 mph 26.5 mph N/A   Overcast
7:36 AM 30.2 °F 19.3 °F 19.4 °F 64% 30.02 in 10.0 mi South 15.0 mph 19.6 mph N/A   Overcast
7:56 AM 32.0 °F 21.2 °F 19.4 °F 60% 30.02 in 10.0 mi SSW 16.1 mph 23.0 mph N/A   Mostly Cloudy
8:16 AM 30.2 °F 19.3 °F 19.4 °F 64% 30.02 in 10.0 mi South 15.0 mph - N/A   Overcast
8:36 AM 32.0 °F 22.1 °F 19.4 °F 60% 30.01 in 10.0 mi SSW 13.8 mph - N/A   Overcast
8:56 AM 32.0 °F 21.2 °F 19.4 °F 60% 30.01 in 10.0 mi SSW 16.1 mph 19.6 mph N/A   Overcast
9:16 AM 32.0 °F 22.1 °F 19.4 °F 60% 30.00 in 10.0 mi SW 13.8 mph 23.0 mph N/A   Overcast
9:36 AM 32.0 °F 21.6 °F 21.2 °F 64% 29.99 in 10.0 mi SSW 15.0 mph 20.7 mph N/A   Overcast
9:56 AM 32.0 °F 22.1 °F 21.2 °F 64% 29.99 in 10.0 mi SSW 13.8 mph - N/A   Overcast
10:16 AM 33.8 °F 24.3 °F 21.2 °F 60% 29.98 in 10.0 mi SSW 13.8 mph 21.9 mph N/A   Mostly Cloudy
10:36 AM 33.8 °F 23.5 °F 21.2 °F 60% 29.98 in 10.0 mi SSW 16.1 mph 20.7 mph N/A   Mostly Cloudy
10:56 AM 33.8 °F 24.3 °F 21.2 °F 60% 29.98 in 10.0 mi SSW 13.8 mph 21.9 mph N/A   Mostly Cloudy
11:16 AM 33.8 °F 23.9 °F 21.2 °F 60% 29.97 in 10.0 mi South 15.0 mph - N/A   Overcast
11:36 AM 33.8 °F 23.9 °F 21.2 °F 60% 29.97 in 10.0 mi South 15.0 mph 21.9 mph N/A   Overcast
11:56 AM 33.8 °F 23.2 °F 21.2 °F 60% 29.97 in 10.0 mi South 17.3 mph - N/A   Overcast
12:16 PM 35.6 °F 27.1 °F 21.2 °F 56% 29.97 in 10.0 mi South 12.7 mph - N/A   Overcast
12:36 PM 35.6 °F 26.2 °F 21.2 °F 56% 29.97 in 10.0 mi South 15.0 mph 23.0 mph N/A   Overcast
12:56 PM 35.6 °F 25.9 °F 21.2 °F 56% 29.97 in 10.0 mi SW 16.1 mph 24.2 mph N/A   Overcast
1:16 PM 35.6 °F 26.6 °F 23.0 °F 60% 29.98 in 10.0 mi SW 13.8 mph 19.6 mph N/A   Overcast
1:36 PM 35.6 °F 26.6 °F 23.0 °F 60% 29.98 in 10.0 mi SW 13.8 mph 21.9 mph N/A   Overcast
1:56 PM 35.6 °F 26.2 °F 23.0 °F 60% 29.98 in 10.0 mi SSW 15.0 mph 19.6 mph N/A   Overcast
2:16 PM 35.6 °F 26.2 °F 23.0 °F 60% 29.97 in 10.0 mi SW 15.0 mph 21.9 mph N/A   Overcast
2:36 PM 35.6 °F 26.6 °F 23.0 °F 60% 29.96 in 10.0 mi SW 13.8 mph 21.9 mph N/A   Overcast
2:56 PM 35.6 °F 27.5 °F 23.0 °F 60% 29.96 in 10.0 mi SW 11.5 mph - N/A   Overcast
3:16 PM 35.6 °F 27.5 °F 23.0 °F 60% 29.96 in 10.0 mi SW 11.5 mph 20.7 mph N/A   Overcast
3:36 PM 35.6 °F 25.9 °F 24.8 °F 65% 29.96 in 10.0 mi SW 16.1 mph - N/A   Overcast
3:56 PM 35.6 °F 26.6 °F 24.8 °F 65% 29.96 in 10.0 mi SSW 13.8 mph 20.7 mph N/A   Overcast
4:16 PM 35.6 °F 25.2 °F 24.8 °F 65% 29.95 in 10.0 mi South 18.4 mph 25.3 mph N/A   Overcast
4:36 PM 35.6 °F 26.6 °F 24.8 °F 65% 29.95 in 10.0 mi SSW 13.8 mph 20.7 mph N/A   Overcast
4:56 PM 35.6 °F 25.5 °F 24.8 °F 65% 29.95 in 10.0 mi SSW 17.3 mph 21.9 mph N/A   Overcast
5:16 PM 35.6 °F 25.5 °F 24.8 °F 65% 29.95 in 10.0 mi SSW 17.3 mph 26.5 mph N/A   Overcast
5:36 PM 35.6 °F 26.2 °F 24.8 °F 65% 29.95 in 10.0 mi SSW 15.0 mph - N/A   Overcast
5:56 PM 35.6 °F 25.9 °F 24.8 °F 65% 29.95 in 10.0 mi South 16.1 mph - N/A   Overcast
6:16 PM 35.6 °F 26.2 °F 24.8 °F 65% 29.95 in 10.0 mi South 15.0 mph - N/A   Overcast
6:36 PM 35.6 °F 25.9 °F 24.8 °F 65% 29.96 in 10.0 mi South 16.1 mph - N/A   Mostly Cloudy
6:56 PM 35.6 °F 27.1 °F 24.8 °F 65% 29.95 in 10.0 mi SSW 12.7 mph 24.2 mph N/A   Overcast
7:16 PM 35.6 °F 27.1 °F 24.8 °F 65% 29.96 in 10.0 mi South 12.7 mph 21.9 mph N/A   Overcast
7:36 PM 35.6 °F 27.1 °F 24.8 °F 65% 29.96 in 10.0 mi SSW 12.7 mph 16.1 mph N/A   Overcast
7:56 PM 35.6 °F 27.5 °F 24.8 °F 65% 29.95 in 10.0 mi SW 11.5 mph 17.3 mph N/A   Overcast
8:16 PM 35.6 °F 26.6 °F 24.8 °F 65% 29.95 in 10.0 mi SW 13.8 mph - N/A   Overcast
8:36 PM 35.6 °F 26.2 °F 24.8 °F 65% 29.95 in 10.0 mi SW 15.0 mph 21.9 mph N/A   Overcast
8:56 PM 35.6 °F 25.5 °F 24.8 °F 65% 29.95 in 10.0 mi SSW 17.3 mph - N/A   Overcast
9:16 PM 35.6 °F 25.9 °F 24.8 °F 65% 29.94 in 10.0 mi South 16.1 mph 23.0 mph N/A   Scattered Clouds
9:36 PM 35.6 °F 25.9 °F 24.8 °F 65% 29.94 in 10.0 mi SSW 16.1 mph 24.2 mph N/A   Scattered Clouds
9:56 PM 35.6 °F 24.8 °F 24.8 °F 65% 29.93 in 10.0 mi South 19.6 mph 25.3 mph N/A   Mostly Cloudy
10:16 PM 35.6 °F 24.2 °F 24.8 °F 65% 29.94 in 10.0 mi South 21.9 mph 28.8 mph N/A   Overcast
10:36 PM 35.6 °F 25.2 °F 24.8 °F 65% 29.94 in 10.0 mi South 18.4 mph 26.5 mph N/A   Mostly Cloudy
10:56 PM 35.6 °F 25.2 °F 24.8 °F 65% 29.94 in 10.0 mi South 18.4 mph 27.6 mph N/A   Mostly Cloudy
11:16 PM 35.6 °F 25.2 °F 24.8 °F 65% 29.94 in 10.0 mi South 18.4 mph 24.2 mph N/A   Overcast
11:36 PM 37.4 °F 28.5 °F 24.8 °F 60% 29.94 in 10.0 mi South 15.0 mph 24.2 mph N/A   Overcast
11:56 PM 35.6 °F 26.2 °F 24.8 °F 65% 29.94 in 10.0 mi SSW 15.0 mph 21.9 mph N/A   Overcast